{"data":{"norad_id":55971,"intl_designator":"2023-038B","name":"SES-19","alt_names":[],"object_type":"PAYLOAD","status":"ACTIVE","operator":null,"country":"SES","launch_date":"2023-03-17","launch_site_code":"AFETR","launch_vehicle":null,"mission":null,"orbit_class":"UNKNOWN","rcs_meters":null,"size_class":null,"mass_kg":null,"dimensions":null,"purposes":["comms"],"wikipedia_slug":null,"has_3d_model":false,"image_url":null,"decayed_at":null,"tle_current":{"epoch":"2026-05-25T03:10:18.780384Z","epoch_age_seconds":66805,"freshness":"FRESH","line1":"1 55971U 23038B   26145.13216181  .00000085  00000+0  00000+0 0  9995","line2":"2 55971   0.0197 298.5177 0001640 120.1064  96.7746  1.00271149 11860","mean_motion":1.00271149,"eccentricity":0.000164,"inclination_deg":0.0197,"raan_deg":298.5177,"arg_perigee_deg":120.1064,"mean_anomaly_deg":96.7746,"bstar":0,"rev_number":1186,"period_min":1436.1060129071,"perigee_km":35779.858210739,"apogee_km":35793.688301303,"semimajor_km":42164.910256021,"source":"CELESTRAK","updated_at":"2026-05-25T13:38:14.518732Z"}}}